Location: Rochester
(43.1610°N, 77.6109°W)
Time: 10:04:01
(UTC-05:00)

CUTE 1.7 + AOD 2 - Pass Details

Date: 21 October 2021
Orbit: 592 x 611 km, 97.6° (Epoch: 05 December)

Event Time Altitude Azimuth Distance (km) Brightness Sun altitude
Rises 04:58:05 0° 19° (NNE) 2,885 ? -28.6°
Reaches altitude 10° 05:00:22 10° 26° (NNE) 1,975 ? -28.2°
Maximum altitude 05:04:28 43° 98° (E) 857 ? -27.5°
Enters shadow 05:05:57 31° 146° (SE) 1,068 ? -27.2°
